This demonstration page uses our WeatherBlox Daily Observations layout. Learn more.

Left ArrowRight Arrow

41.86663, -103.66717

Hourly Observations for January 22, 2015

Temp ( °F °C ) Dew Point ( °F °C ) Humidity (%) Winds ( mph kmh ) Pressure ( in mb ) Visibility ( mi km ) Precip ( " mm )
12:53 am 00:53 Clear 14 -10 10 -12.2 84 84 Calm 30.45 1031 10 16 0.00 0.00
1:53 am 01:53 Clear 13 -10.6 10 -12.2 88 88 Calm 30.44 1031 10 16 0.00 0.00
2:53 am 02:53 Clear 10 -12.2 7 -13.9 87 87 NNW 5 7 30.45 1031 10 16 0.00 0.00
3:53 am 03:53 Clear 12 -11.1 10 -12.2 92 92 Calm 30.45 1031 10 16 0.00 0.00
4:53 am 04:53 Clear 10 -12.2 5 -15 80 80 Calm 30.45 1031 8 13 0.00 0.00
5:53 am 05:53 Clear 8 -13.3 5 -15 87 87 E 3 6 30.46 1032 9 14 0.00 0.00
6:53 am 06:53 Clear 9 -12.8 5 -15 84 84 ENE 6 9 30.46 1032 10 16 0.00 0.00
7:53 am 07:53 Sunny 10 -12.2 7 -13.9 87 87 E 6 9 30.47 1032 10 16 0.00 0.00
8:53 am 08:53 Sunny 16 -8.9 13 -10.6 88 88 ESE 6 9 30.46 1032 10 16 0.00 0.00
9:53 am 09:53 Sunny 22 -5.6 16 -8.9 78 78 Calm 30.44 1031 10 16 0.00 0.00
10:53 am 10:53 Sunny 29 -1.7 17 -8.3 61 61 Calm 30.42 1030 10 16 0.00 0.00
11:53 am 11:53 Sunny 34 1.1 18 -7.8 52 52 Calm 30.36 1028 10 16 0.00 0.00
12:53 pm 12:53 Sunny 40 4.4 15 -9.4 36 36 Calm 30.30 1026 10 16 0.00 0.00
1:53 pm 13:53 Sunny 41 5 16 -8.9 36 36 W 6 9 30.27 1025 10 16 0.00 0.00
2:53 pm 14:53 Sunny 41 5 16 -8.9 36 36 W 7 11 30.27 1025 10 16 0.00 0.00
3:53 pm 15:53 Sunny 39 3.9 17 -8.3 41 41 WSW 5 7 30.27 1025 10 16 0.00 0.00
4:53 pm 16:53 Sunny 38 3.3 13 -10.6 36 36 WSW 3 6 30.28 1025 10 16 0.00 0.00
5:53 pm 17:53 Clear 31 -0.6 15 -9.4 52 52 WNW 5 7 30.30 1026 10 16 0.00 0.00
6:53 pm 18:53 Clear 24 -4.4 15 -9.4 68 68 NW 5 7 30.32 1027 10 16 0.00 0.00
7:53 pm 19:53 Clear 23 -5 14 -10 68 68 NW 5 7 30.32 1027 10 16 0.00 0.00
8:53 pm 20:53 Clear 21 -6.1 14 -10 74 74 WNW 7 11 30.30 1026 10 16 0.00 0.00
9:53 pm 21:53 Clear 21 -6.1 14 -10 74 74 NW 8 13 30.27 1025 10 16 0.00 0.00
10:53 pm 22:53 Clear 19 -7.2 14 -10 81 81 NW 7 11 30.27 1025 10 16 0.00 0.00
11:53 pm 23:53 Clear 22 -5.6 13 -10.6 68 68 NW 3 6 30.24 1024 10 16 0.00 0.00

Powered by AerisWeather